KKS-1 (KISEKI)

Last updated on Mon Sep 21 2026 00:03:14 GMT+0000 (Coordinated Universal Time)

1 33499U 09002H 26263.57963719 .00000832 00000+0 10836-3 0 9998 2 33499 98.1164 187.5295 0007632 351.8950 8.2139 14.83324120950336
UTC large
Height (km)
Speed (km/s)
/
Latitude / Longitude
Inclination (degrees)
Orbital Period (minutes)
Azimuth
Elevation
Range (km)
Doppler Factor

Next 0 passes for location: London (51.5072 / 0.1276)

No passes found over London.
KKS-1 (KISEKI)